sat.trackr.live / text

‹ back to catalog

STARLINK-4323

NORAD 53069 · 2022-077AC

PAYLOAD ACTIVE UNKNOWN

§ Identity

Operator
Country
US
Launch date
2022-07-11
Launch site
AFWTR
Launch vehicle
Mass (kg)
RCS (m²)

Purposes: comms

External: N2YO · Heavens-Above · Gunter

§ Orbital elements

Epoch: 2026-09-18T04:54:39.295872Z

Period
93.91 min
Inclination
97.2844°
Eccentricity
0.0001728
Mean motion
15.33433439 rev/d
Perigee alt
464.4 km
Apogee alt
466.8 km
Semi-major
6,843.7 km
B*
3.0825e-5
RAAN
76.0814°
Arg perigee
87.5827°
Mean anomaly
272.5614°
Rev number
22,994

§ Raw data

STARLINK-43231 53069U 22077AC  26261.20462148  .00000920  00000+0  30825-4 0  99972 53069  97.2844  76.0814 0001728  87.5827 272.5614 15.33433439229941

JSON: /api/v1/satellites/53069 · /tle

For live sub-satellite position, see the globe view (requires WebGL).

§ Visibility from observer

Set your observer location to see the next 7 days of passes ≥ 10°. The values pass through the URL so the page stays shareable.

No JS? Fill the form by hand. The geolocation button needs JavaScript.